EW4036 Weather Reports


Display with metric or nautical units.
time (UTC)temp
F
wind
direction
speed
MPH
gust
MPH
rain 1hr
in
rain 24hr
in
rain mn
in
humidity
%
barometer
mb
20260502181534 64 257 4.0 8.0 0.00 0.00 0.00 54 1008.2
20260502163135 68 273 6.0 11.0 0.00 0.00 0.00 47 1008.3
20260502161534 68 269 9.0 13.0 0.00 0.00 0.00 46 1008.5
20260502151538 71 213 10.0 24.0 0.00 0.00 0.00 37 1008.9
20260502130133 72 262 16.0 34.0 0.00 0.00 0.00 38 1010.2
20260502123033 72 249 13.0 27.0 0.00 0.00 0.00 39 1010.5
20260502121633 71 266 18.0 28.0 0.00 0.00 0.00 38 1010.7
20260502114538 71 209 18.0 27.0 0.00 0.00 0.00 40 1011.1
20260502113039 70 223 16.0 28.0 0.00 0.00 0.00 42 1011.2
20260502111633 70 250 17.0 31.0 0.00 0.00 0.00 41 1011.5
20260502110036 71 221 16.0 22.0 0.00 0.00 0.00 42 1011.7
20260502104547 69 230 19.0 26.0 0.00 0.00 0.00 40 1011.9
20260502103035 70 217 13.0 23.0 0.00 0.00 0.00 44 1012.0
20260502101536 70 238 14.0 23.0 0.00 0.00 0.00 44 1012.3
20260502070042 57 196 5.0 9.0 0.00 0.00 0.00 63 1014.7
20260502064539 56 178 5.0 8.0 0.00 0.00 0.00 64 1015.0
20260502063037 55 206 5.0 9.0 0.00 0.00 0.00 65 1015.1
20260502061535 54 171 5.0 8.0 0.00 0.00 0.00 67 1015.3
20260502060033 53 160 4.0 7.0 0.00 0.00 0.00 69 1015.4
20260502054537 52 172 3.0 7.0 0.00 0.00 0.00 71 1015.6
20260502053038 51 148 4.0 6.0 0.00 0.00 0.00 72 1015.7
20260502051557 50 182 3.0 5.0 0.00 0.00 0.00 73 1015.7
20260502050038 48 157 2.0 5.0 0.00 0.00 0.00 76 1015.8
20260502044537 47 155 1.0 6.0 0.00 0.00 0.00 79 1016.0
20260502043044 46 179 4.0 8.0 0.00 0.00 0.00 80 1016.1
20260502041540 45 157 4.0 7.0 0.00 0.00 0.00 82 1016.2
20260502040036 44 145 3.0 5.0 0.00 0.00 0.00 83 1016.4
20260502034545 44 167 3.0 5.0 0.00 0.00 0.00 82 1016.6
20260502033048 43 153 3.0 5.0 0.00 0.00 0.00 83 1016.7
20260502031547 42 160 3.0 5.0 0.00 0.00 0.00 82 1016.8
20260502030033 43 145 4.0 7.0 0.00 0.00 0.00 79 1016.9
20260502024535 44 141 3.0 6.0 0.00 0.00 0.00 78 1017.0
20260502023033 44 146 2.0 5.0 0.00 0.00 0.00 76 1017.2
20260502021634 45 164 3.0 4.0 0.00 0.00 0.00 75 1017.3
20260502020033 45 171 2.0 6.0 0.00 0.00 0.00 74 1017.5
20260502014534 46 167 4.0 6.0 0.00 0.00 0.00 73 1017.6
20260502011545 48 205 5.0 7.0 0.00 0.00 0.00 71 1017.9
20260502010036 48 240 4.0 7.0 0.00 0.00 0.00 71 1018.1
20260502004536 48 198 2.0 6.0 0.00 0.00 0.00 69 1018.1
20260502003135 49 197 4.0 7.0 0.00 0.00 0.00 68 1018.3
20260502001537 49 205 5.0 8.0 0.00 0.00 0.00 67 1018.3
20260502000033 50 205 6.0 12.0 0.00 0.00 0.00 66 1018.4
20260501234548 50 192 8.0 12.0 0.00 0.00 0.00 65 1018.5
20260501233132 51 198 8.0 15.0 0.00 0.00 0.00 64 1018.6
20260501231547 51 204 7.0 13.0 0.00 0.00 0.00 64 1018.7
20260501230036 50 188 6.0 11.0 0.00 0.00 0.00 66 1018.7
20260501224532 50 192 7.0 12.0 0.00 0.00 0.00 66 1018.8
20260501223035 50 188 5.0 10.0 0.00 0.00 0.00 65 1018.8
20260501221538 50 190 6.0 9.0 0.00 0.00 0.00 64 1019.0
20260501220036 51 187 5.0 8.0 0.00 0.00 0.00 63 1019.1
20260501214545 52 236 3.0 6.0 0.00 0.00 0.00 60 1019.4
20260501213039 53 239 7.0 11.0 0.00 0.00 0.00 58 1019.4
20260501211532 53 220 3.0 13.0 0.00 0.00 0.00 57 1019.5
20260501210035 54 219 5.0 14.0 0.00 0.00 0.00 56 1019.5
20260501204538 54 213 7.0 14.0 0.00 0.00 0.00 57 1019.4
20260501203034 53 182 6.0 11.0 0.00 0.00 0.00 59 1019.5
20260501201541 53 208 5.0 9.0 0.00 0.00 0.00 59 1019.5
20260501200132 53 178 5.0 8.0 0.00 0.00 0.00 58 1019.6
20260501194541 54 202 4.0 7.0 0.00 0.00 0.00 56 1019.9
20260501193039 55 213 5.0 8.0 0.00 0.00 0.00 54 1020.0
20260501191534 57 221 5.0 14.0 0.00 0.00 0.00 52 1020.1
20260501190036 57 230 8.0 14.0 0.00 0.00 0.00 51 1020.1
20260501184534 58 223 6.0 15.0 0.00 0.00 0.00 50 1020.0
20260501183037 59 236 9.0 15.0 0.00 0.00 0.00 48 1020.3